TimeCDT,TemperatureF,Dew PointF,Humidity,Sea Level PressureIn,VisibilityMPH,Wind Direction,Wind SpeedMPH,Gust SpeedMPH,PrecipitationIn,Events,Conditions,WindDirDegrees,DateUTC
12:52 AM,84.0,70.0,63,29.80,10.0,South,13.8,-,N/A,,Scattered Clouds,190,2013-06-22 05:52:00
1:52 AM,82.4,69.8,66,29.82,10.0,South,10.4,-,N/A,,Mostly Cloudy,180,2013-06-22 06:52:00
2:52 AM,82.9,70.0,65,29.85,10.0,SSW,9.2,-,N/A,,Overcast,200,2013-06-22 07:52:00
3:10 AM,82.4,69.8,66,29.91,10.0,West,11.5,-,N/A,Thunderstorm,Thunderstorm,280,2013-06-22 08:10:00
3:30 AM,78.8,57.2,47,29.94,10.0,NNW,19.6,31.1,N/A,Thunderstorm,Thunderstorm,340,2013-06-22 08:30:00
3:52 AM,77.0,60.1,56,29.91,10.0,North,10.4,-,N/A,Thunderstorm,Thunderstorm,350,2013-06-22 08:52:00
4:10 AM,77.0,60.8,57,29.91,10.0,North,10.4,-,N/A,,Overcast,10,2013-06-22 09:10:00
4:52 AM,77.0,57.9,52,29.86,10.0,Calm,Calm,-,N/A,,Overcast,0,2013-06-22 09:52:00
5:52 AM,75.9,61.0,60,29.94,10.0,Calm,Calm,-,N/A,,Overcast,0,2013-06-22 10:52:00
6:52 AM,73.9,63.0,68,29.94,10.0,North,4.6,-,N/A,,Mostly Cloudy,360,2013-06-22 11:52:00
7:52 AM,75.0,62.1,64,29.91,10.0,NNE,5.8,-,N/A,,Mostly Cloudy,20,2013-06-22 12:52:00
8:52 AM,73.0,62.1,68,29.98,10.0,North,11.5,-,N/A,,Mostly Cloudy,350,2013-06-22 13:52:00
9:52 AM,73.0,62.1,68,30.00,10.0,North,11.5,-,N/A,,Mostly Cloudy,350,2013-06-22 14:52:00
10:15 AM,73.4,62.6,69,29.93,10.0,East,19.6,26.5,N/A,,Mostly Cloudy,80,2013-06-22 15:15:00
10:52 AM,79.0,64.0,60,29.87,10.0,ESE,17.3,24.2,N/A,,Mostly Cloudy,110,2013-06-22 15:52:00
11:52 AM,84.9,64.0,49,29.86,10.0,ESE,21.9,36.8,N/A,,Scattered Clouds,120,2013-06-22 16:52:00
12:52 PM,88.0,64.0,45,29.84,10.0,ESE,26.5,34.5,N/A,,Scattered Clouds,120,2013-06-22 17:52:00
1:52 PM,88.0,71.1,57,29.81,10.0,SE,20.7,29.9,N/A,,Scattered Clouds,140,2013-06-22 18:52:00
2:52 PM,91.0,68.0,47,29.79,10.0,SSE,28.8,32.2,N/A,,Mostly Cloudy,160,2013-06-22 19:52:00
3:52 PM,89.1,70.0,53,29.78,10.0,SSE,19.6,27.6,N/A,,Overcast,150,2013-06-22 20:52:00
4:52 PM,91.9,68.0,45,29.77,10.0,South,21.9,31.1,N/A,,Mostly Cloudy,180,2013-06-22 21:52:00
5:52 PM,91.0,68.0,47,29.77,10.0,South,19.6,26.5,N/A,,Mostly Cloudy,170,2013-06-22 22:52:00
6:52 PM,90.0,69.1,50,29.76,10.0,South,15.0,20.7,N/A,,Overcast,170,2013-06-22 23:52:00
7:52 PM,89.1,64.0,43,29.76,10.0,South,19.6,27.6,N/A,,Mostly Cloudy,180,2013-06-23 00:52:00
8:52 PM,86.0,63.0,46,29.77,10.0,South,18.4,25.3,N/A,,Mostly Cloudy,170,2013-06-23 01:52:00
9:52 PM,84.0,64.0,51,29.79,10.0,South,15.0,-,N/A,,Mostly Cloudy,170,2013-06-23 02:52:00
10:52 PM,82.9,66.0,56,29.81,10.0,SSE,17.3,-,N/A,,Mostly Cloudy,160,2013-06-23 03:52:00
11:52 PM,82.0,66.9,60,29.78,10.0,South,21.9,-,N/A,,Mostly Cloudy,170,2013-06-23 04:52:00